Location: Unspecified
(0.0000°N, 0.0000°E)
Time: 23:37:38
(UTC+00:00)

SRMSAT - Pass Details

Date: 23 July 2019
Orbit: 848 x 866 km, 20.0° (Epoch: 16 August)

Event Time Altitude Azimuth Distance (km) Brightness Sun altitude
Exits shadow 04:27:10 50° 273° (W) 1,058 ? -23.2°
Maximum altitude 04:28:43 76° 201° (SSW) 870 ? -22.9°
Drops below altitude 10° 04:34:37 10° 116° (ESE) 2,460 ? -21.5°
Sets 04:37:11 0° 114° (ESE) 3,396 ? -20.9°
